Vorticity
11 11 11 11 9 9 8 7 7 7 6 6 6 7 6 7 7 7 8 7 7 7 8 8 7 7 7 7 6 4 2 8 2 13 7 12 7 1 4 2 6 7 9 9 8
12 12 11 11 10 10 9 8 8 7 7 7 6 6 7 7 8 8 10 9 8 7 8 9 7 7 5 6 4 3 9 11 6 7 4 2 3 3 4 8 9 9 7 8 7
13 14 13 13 12 10 10 9 8 8 8 7 6 7 9 9 9 11 9 8 8 8 8 7 5 5 6 5 3 2 1 7 3 7 4 2 3 4 6 17 11 9 7 7 6
9 11 13 13 13 11 10 9 8 8 7 7 8 9 10 9 9 13 11 7 8 7 9 7 7 6 6 4 9 1 8 8 3 6 6 5 7 7 7 5 7 8 6 5 6
6 8 12 12 10 9 8 8 8 8 8 8 7 7 8 7 5 9 9 9 7 8 9 7 6 6 7 15 -3 3 9 5 6 4 7 7 8 5 22 14 8 9 7 10 8
6 6 7 11 11 10 9 8 7 6 6 6 5 6 7 7 7 10 3 2 5 7 7 6 6 3 3 6 6 -3 1 2 5 6 6 5 5 5 6 9 6 8 9 8 10
6 6 5 6 9 10 10 9 8 7 7 6 5 4 6 4 4 19 12 8 10 8 6 5 5 5 8 5 13 6 5 11 8 6 8 9 10 28 3 -0 10 13 12 9 9
6 6 6 6 6 6 7 7 8 9 8 8 8 7 8 8 9 10 5 5 8 7 7 6 5 5 5 -1 -5 -2 2 4 10 10 -3 5 -2 5 13 16 3 3 6 3 2
7 7 7 6 6 6 6 5 5 6 6 6 7 7 12 8 12 8 9 7 6 7 5 6 6 5 5 3 2 17 -6 -3 2 9 10 11 -3 4 3 -9 -4 -2 -2 4 8
6 7 7 7 7 7 7 7 7 6 6 5 6 8 12 6 9 11 14 16 12 10 9 7 5 3 6 6 -9 8 19 11 -0 2 3 -7 -6 -2 0 4 2 1 5 10 11
6 6 6 6 7 7 7 6 7 9 13 15 -8 -4 -10 -10 -6 -5 -1 2 4 3 8 11 8 -1 12 11 10 9 1 3 5 3 3 2 6 6 7 9 7 6 6 7 5
7 7 6 6 6 6 6 6 7 2 8 7 14 7 4 4 4 8 9 7 7 8 8 5 -3 7 8 8 6 5 5 4 4 24 25 8 2 3 6 11 11 13 13 11 10
7 7 7 6 6 6 6 7 6 5 7 9 11 13 11 13 12 11 7 6 6 4 5 7 -12 -9 -2 -9 21 14 15 8 10 0 7 14 26 52 53 36 19 4 6 11 12
11 10 9 8 7 7 7 7 7 8 18 15 19 19 24 24 18 23 21 14 13 20 23 29 52 28 17 15 15 4 15 16 11 21 24 1 -2 -8 -19 -6 15 16 -12 12 7
11 11 12 13 10 8 6 9 9 12 8 14 13 15 9 11 8 6 12 11 10 7 2 -16 -7 -3 -2 -6 -3 3 19 13 11 14 15 16 10 24 36 7 -8 -11 23 24 22
7 8 7 8 12 13 12 12 14 12 16 5 13 5 11 12 8 9 9 7 6 11 11 9 13 11 7 7 1 -4 3 15 15 16 26 14 -14 28 25 13 14 18 19 12 18
17 17 16 12 9 8 12 14 10 2 11 12 3 1 6 9 4 5 7 7 5 8 11 -7 16 33 32 17 14 16 -2 13 21 11 -4 33 30 -29 0 17 14 3 11 6 6
16 17 17 17 19 13 13 15 5 12 7 3 6 3 14 5 10 14 10 8 8 12 14 20 29 13 2 6 -4 15 42 -33 9 6 -5 5 16 -2 18 17 6 7 6 3 4
16 18 20 19 21 17 14 1 13 10 13 5 7 18 12 -3 -1 5 5 10 7 16 9 8 18 37 -11 -18 4 10 8 17 23 19 14 5 4 1 11 11 13 14 11 5 4
20 10 14 22 19 14 11 3 5 5 -1 3 8 8 3 -4 -5 8 12 9 5 -2 -0 10 17 35 23 23 22 1 -8 15 1 10 7 17 24 3 26 10 7 10 12 13 10
4 1 12 15 17 16 6 -0 12 3 0 11 8 -2 -3 6 16 22 12 7 6 3 -1 -1 24 0 -13 -7 17 26 23 8 12 19 -2 7 2 5 8 11 11 13 12 13 11
8 9 12 11 4 12 12 11 10 7 8 6 10 16 16 15 13 22 4 5 -2 -2 7 24 9 7 -9 52 34 36 34 39 21 -5 22 3 18 10 10 6 4 5 14 9 15
11 7 8 9 6 11 6 3 6 9 13 8 2 3 3 10 18 15 6 8 3 4 3 -10 11 17 15 6 29 0 -14 -16 -0 50 20 17 2 -29 10 19 20 21 10 9 11
16 13 11 18 8 8 9 8 13 4 11 7 2 10 9 4 8 4 1 2 -3 14 11 -5 24 -2 -34 -33 -6 8 8 4 6 23 2 8 7 7 12 12 14 15 14 12 11
15 8 10 -1 12 10 10 7 10 6 9 4 8 0 7 19 1 29 19 -3 -8 33 41 22 8 13 6 3 -12 4 18 28 19 9 22 1 22 9 10 11 13 14 12 13 10
12 13 12 13 11 9 10 6 8 8 5 5 10 10 5 7 3 5 17 15 21 -5 -8 12 12 4 6 20 37 20 9 14 22 16 13 8 8 11 7 9 10 7 6 5 5
11 10 11 9 8 12 10 9 5 11 19 7 8 12 13 17 18 18 16 17 9 12 10 20 25 15 19 16 20 32 14 10 13 11 13 16 13 11 6 7 9 9 9 10 9
Height
3080 3079 3081 3081 3082 3082 3083 3085 3086 3087 3087 3089 3090 3089 3091 3090 3090 3090 3092 3093 3093 3094 3095 3096 3097 3098 3100 3101 3102 3104 3105 3104 3105 3106 3107 3108 3108 3109 3108 3107 3107 3106 3107 3108 3108
3080 3079 3079 3079 3080 3081 3082 3083 3084 3086 3086 3088 3087 3088 3089 3088 3088 3089 3091 3091 3092 3094 3095 3095 3096 3098 3098 3099 3101 3102 3102 3103 3104 3105 3105 3106 3106 3106 3106 3105 3104 3104 3105 3106 3106
3080 3079 3078 3078 3079 3079 3080 3082 3083 3084 3084 3085 3085 3086 3087 3086 3087 3088 3089 3090 3091 3092 3093 3093 3094 3096 3097 3098 3100 3100 3100 3103 3103 3103 3104 3103 3103 3102 3102 3102 3103 3103 3102 3103 3104
3080 3079 3078 3078 3078 3078 3079 3080 3081 3081 3082 3083 3083 3084 3085 3085 3089 3087 3087 3088 3090 3091 3092 3092 3093 3094 3096 3097 3098 3098 3099 3100 3101 3101 3100 3100 3100 3099 3099 3101 3100 3100 3100 3101 3102
3082 3080 3079 3078 3078 3078 3078 3079 3080 3080 3080 3081 3082 3083 3083 3084 3086 3086 3087 3088 3089 3090 3090 3091 3092 3094 3095 3096 3096 3095 3098 3097 3098 3098 3098 3097 3097 3095 3096 3097 3097 3098 3098 3099 3100
3082 3080 3079 3078 3077 3077 3077 3078 3078 3079 3079 3080 3080 3081 3082 3084 3084 3085 3086 3087 3088 3089 3089 3090 3091 3093 3093 3094 3094 3093 3094 3095 3095 3096 3094 3094 3094 3092 3095 3094 3094 3095 3096 3097 3098
3081 3080 3079 3078 3077 3076 3076 3077 3077 3077 3078 3078 3078 3078 3080 3082 3082 3083 3084 3085 3085 3086 3087 3088 3089 3091 3091 3092 3091 3091 3090 3090 3091 3092 3091 3091 3090 3091 3091 3092 3092 3093 3093 3095 3096
3079 3078 3077 3077 3076 3075 3075 3075 3076 3076 3076 3076 3076 3076 3077 3078 3079 3081 3082 3082 3083 3084 3085 3086 3086 3087 3088 3090 3089 3088 3087 3086 3088 3088 3088 3088 3086 3089 3088 3090 3091 3091 3092 3093 3094
3078 3076 3076 3075 3075 3074 3074 3074 3074 3074 3074 3074 3074 3075 3075 3076 3077 3077 3079 3080 3081 3082 3083 3084 3085 3085 3086 3086 3087 3085 3084 3084 3085 3085 3084 3084 3083 3086 3086 3087 3088 3089 3090 3090 3090
3076 3075 3074 3073 3073 3072 3072 3071 3071 3072 3072 3072 3072 3074 3073 3074 3074 3074 3075 3077 3078 3079 3080 3081 3081 3082 3082 3083 3081 3081 3081 3081 3081 3082 3080 3079 3077 3081 3083 3082 3084 3085 3085 3085 3085
3073 3072 3071 3070 3070 3070 3070 3069 3071 3071 3069 3070 3069 3069 3070 3071 3072 3073 3073 3074 3075 3076 3076 3077 3077 3075 3078 3080 3080 3079 3079 3077 3078 3079 3076 3074 3071 3073 3076 3079 3080 3075 3070 3069 3070
3069 3068 3068 3067 3067 3067 3066 3066 3067 3068 3066 3065 3064 3064 3065 3065 3067 3068 3070 3072 3072 3072 3072 3073 3069 3075 3075 3075 3074 3074 3073 3071 3073 3074 3071 3068 3063 3066 3072 3068 3067 3065 3064 3064 3064
3065 3064 3064 3063 3063 3063 3063 3064 3063 3063 3063 3061 3059 3059 3061 3062 3062 3064 3066 3066 3067 3067 3068 3067 3070 3070 3070 3070 3069 3068 3068 3069 3070 3069 3065 3063 3055 3059 3062 3061 3060 3059 3058 3057 3056
3059 3059 3059 3058 3061 3059 3059 3060 3060 3061 3060 3058 3056 3056 3057 3057 3059 3060 3060 3063 3062 3063 3064 3063 3064 3064 3063 3064 3067 3062 3066 3066 3066 3066 3061 3060 3054 3056 3057 3055 3054 3053 3053 3051 3050
3054 3054 3053 3053 3054 3055 3056 3056 3057 3059 3060 3057 3055 3055 3055 3057 3059 3058 3058 3059 3059 3060 3062 3062 3061 3061 3061 3062 3062 3059 3061 3061 3061 3059 3058 3054 3059 3047 3048 3049 3048 3046 3044 3042 3041
3048 3049 3049 3049 3049 3050 3051 3053 3055 3058 3054 3054 3053 3054 3055 3055 3056 3056 3057 3058 3057 3056 3056 3056 3058 3057 3057 3057 3057 3057 3057 3057 3055 3055 3053 3045 3052 3038 3041 3042 3040 3038 3038 3036 3034
3042 3042 3043 3043 3045 3046 3047 3050 3054 3051 3052 3052 3051 3052 3053 3053 3054 3054 3055 3054 3054 3054 3052 3052 3052 3052 3051 3051 3052 3053 3054 3054 3052 3052 3045 3040 3042 3032 3031 3032 3033 3032 3031 3029 3028
3038 3037 3037 3038 3039 3041 3044 3048 3048 3046 3047 3048 3049 3050 3050 3051 3051 3051 3052 3051 3050 3050 3049 3047 3047 3047 3047 3048 3048 3048 3049 3050 3048 3045 3040 3038 3034 3025 3027 3026 3027 3026 3025 3024 3024
3035 3034 3034 3034 3035 3038 3041 3043 3042 3044 3045 3046 3046 3047 3047 3048 3050 3050 3049 3048 3047 3047 3049 3045 3041 3041 3044 3044 3046 3044 3044 3046 3043 3040 3038 3031 3027 3026 3024 3022 3021 3021 3020 3019 3018
3034 3033 3032 3032 3034 3036 3039 3040 3042 3042 3043 3044 3045 3045 3045 3046 3047 3047 3046 3046 3045 3045 3044 3043 3038 3037 3038 3039 3041 3041 3042 3041 3040 3038 3031 3020 3019 3017 3016 3016 3017 3016 3015 3014 3012
3035 3034 3033 3033 3034 3036 3037 3038 3039 3040 3042 3043 3042 3042 3042 3043 3042 3043 3043 3041 3041 3041 3041 3040 3037 3030 3033 3035 3035 3035 3034 3034 3033 3031 3024 3018 3017 3013 3011 3011 3012 3011 3010 3009 3007
3036 3035 3034 3034 3036 3035 3036 3036 3038 3038 3039 3039 3039 3039 3039 3040 3039 3040 3040 3040 3038 3037 3036 3036 3033 3024 3026 3028 3026 3026 3027 3028 3029 3025 3024 3020 3012 3010 3013 3014 3012 3009 3006 3004 3002
3035 3035 3034 3034 3034 3034 3034 3035 3035 3035 3035 3035 3036 3036 3036 3038 3039 3037 3037 3036 3036 3036 3034 3032 3031 3025 3021 3023 3022 3023 3023 3025 3027 3027 3022 3022 3013 3010 3009 3007 3006 3004 3004 3002 2999
3035 3033 3033 3032 3031 3031 3032 3033 3033 3032 3032 3032 3033 3033 3033 3033 3034 3033 3034 3034 3034 3033 3032 3030 3026 3028 3025 3024 3023 3024 3022 3020 3021 3022 3017 3017 3013 3010 3006 3002 3001 2998 2997 2995 2993
3032 3031 3030 3030 3029 3029 3030 3031 3030 3030 3030 3029 3027 3028 3028 3028 3027 3027 3026 3026 3029 3026 3024 3025 3022 3022 3021 3020 3020 3015 3013 3015 3015 3014 3013 3008 3008 3005 3002 2999 2997 2994 2992 2990 2987
3030 3030 3028 3028 3028 3027 3027 3027 3027 3027 3027 3026 3025 3025 3024 3024 3023 3021 3021 3021 3021 3022 3022 3021 3018 3017 3013 3016 3015 3011 3008 3007 3009 3008 3006 3004 3003 3001 2999 2998 2995 2992 2989 2986 2983
3027 3027 3028 3027 3026 3026 3026 3025 3024 3024 3024 3022 3021 3021 3021 3020 3018 3017 3016 3015 3015 3015 3016 3015 3014 3013 3010 3011 3011 3009 3006 3005 3004 3004 3004 3002 3001 2998 2997 2994 2991 2989 2986 2982 2979